Year,Month,Day,Hour,Minute,Value (Times are PST for temperature in C)
2009,01,18,00,00,2.90
2009,01,18,00,01,2.90
2009,01,18,00,02,2.80
2009,01,18,00,03,2.80
2009,01,18,00,04,2.70
2009,01,18,00,05,2.70
2009,01,18,00,06,2.70
2009,01,18,00,07,2.70
2009,01,18,00,08,2.70
2009,01,18,00,09,2.70
2009,01,18,00,10,2.70
2009,01,18,00,11,2.70
2009,01,18,00,12,2.70
2009,01,18,00,13,2.80
2009,01,18,00,14,2.80
2009,01,18,00,15,2.90
2009,01,18,00,16,2.90
2009,01,18,00,17,2.90
2009,01,18,00,18,3.10
2009,01,18,00,19,3.10
2009,01,18,00,20,3.20
2009,01,18,00,21,3.20
2009,01,18,00,22,3.20
2009,01,18,00,23,3.20
2009,01,18,00,24,3.10
2009,01,18,00,25,3.10
2009,01,18,00,26,3.10
2009,01,18,00,27,3.00
2009,01,18,00,28,2.90
2009,01,18,00,29,2.90
2009,01,18,00,30,2.80
2009,01,18,00,31,2.80
2009,01,18,00,32,2.80
2009,01,18,00,33,2.80
2009,01,18,00,34,2.90
2009,01,18,00,35,2.80
2009,01,18,00,36,2.80
2009,01,18,00,37,2.80
2009,01,18,00,38,2.80
2009,01,18,00,39,2.80
2009,01,18,00,40,2.80
2009,01,18,00,41,2.70
2009,01,18,00,42,2.80
2009,01,18,00,43,2.80
2009,01,18,00,44,2.80
2009,01,18,00,45,2.80
2009,01,18,00,46,2.70
2009,01,18,00,47,2.70
2009,01,18,00,48,2.80
2009,01,18,00,49,2.80
2009,01,18,00,50,2.90
2009,01,18,00,51,2.90
2009,01,18,00,52,2.90
2009,01,18,00,53,2.90
2009,01,18,00,54,3.00
2009,01,18,00,55,3.10
2009,01,18,00,56,3.10
2009,01,18,00,57,3.10
2009,01,18,00,58,3.10
2009,01,18,00,59,3.10
2009,01,18,01,00,3.20
2009,01,18,01,01,3.30
2009,01,18,01,02,3.30
2009,01,18,01,03,3.30
2009,01,18,01,04,3.40
2009,01,18,01,05,3.50
2009,01,18,01,06,3.60
2009,01,18,01,07,3.60
2009,01,18,01,08,3.70
2009,01,18,01,09,3.80
2009,01,18,01,10,3.80
2009,01,18,01,11,3.70
2009,01,18,01,12,3.70
2009,01,18,01,13,3.70
2009,01,18,01,14,3.70
2009,01,18,01,15,3.70
2009,01,18,01,16,3.70
2009,01,18,01,17,3.80
2009,01,18,01,18,3.80
2009,01,18,01,19,3.80
2009,01,18,01,20,3.90
2009,01,18,01,21,3.90
2009,01,18,01,22,3.90
2009,01,18,01,23,4.00
2009,01,18,01,24,4.00
2009,01,18,01,25,4.10
2009,01,18,01,26,4.10
2009,01,18,01,27,4.20
2009,01,18,01,28,4.20
2009,01,18,01,29,4.20
2009,01,18,01,30,4.30
2009,01,18,01,31,4.40
2009,01,18,01,32,4.40
2009,01,18,01,33,4.40
2009,01,18,01,34,4.50
2009,01,18,01,35,4.60
2009,01,18,01,36,4.70
2009,01,18,01,37,4.70
2009,01,18,01,38,4.80
2009,01,18,01,39,4.90
2009,01,18,01,40,4.90
2009,01,18,01,41,5.10
2009,01,18,01,42,5.10
2009,01,18,01,43,5.10
2009,01,18,01,44,5.10
2009,01,18,01,45,5.10
2009,01,18,01,46,5.10
2009,01,18,01,47,5.10
2009,01,18,01,48,5.10
2009,01,18,01,49,5.10
2009,01,18,01,50,5.10
2009,01,18,01,51,5.10
2009,01,18,01,52,5.10
2009,01,18,01,53,5.10
2009,01,18,01,54,5.10
2009,01,18,01,55,5.00
2009,01,18,01,56,4.90
2009,01,18,01,57,4.90
2009,01,18,01,58,4.80
2009,01,18,01,59,4.70
2009,01,18,02,00,4.60
2009,01,18,02,01,4.60
2009,01,18,02,02,4.50
2009,01,18,02,03,4.40
2009,01,18,02,04,4.30
2009,01,18,02,05,4.10
2009,01,18,02,06,4.00
2009,01,18,02,07,3.90
2009,01,18,02,08,3.80
2009,01,18,02,09,3.60
2009,01,18,02,10,3.60
2009,01,18,02,11,3.50
2009,01,18,02,12,3.50
2009,01,18,02,13,3.50
2009,01,18,02,14,3.50
2009,01,18,02,15,3.60
2009,01,18,02,16,3.60
2009,01,18,02,17,3.80
2009,01,18,02,18,3.90
2009,01,18,02,19,4.00
2009,01,18,02,20,4.00
2009,01,18,02,21,4.10
2009,01,18,02,22,4.20
2009,01,18,02,23,4.30
2009,01,18,02,24,4.30
2009,01,18,02,25,4.40
2009,01,18,02,26,4.40
2009,01,18,02,27,4.40
2009,01,18,02,28,4.40
2009,01,18,02,29,4.40
2009,01,18,02,30,4.40
2009,01,18,02,31,4.40
2009,01,18,02,32,4.30
2009,01,18,02,33,4.30
2009,01,18,02,34,4.30
2009,01,18,02,35,4.30
2009,01,18,02,36,4.30
2009,01,18,02,37,4.20
2009,01,18,02,38,4.30
2009,01,18,02,39,4.30
2009,01,18,02,40,4.30
2009,01,18,02,41,4.30
2009,01,18,02,42,4.40
2009,01,18,02,43,4.40
2009,01,18,02,44,4.40
2009,01,18,02,45,4.50
2009,01,18,02,46,4.50
2009,01,18,02,47,4.50
2009,01,18,02,48,4.60
2009,01,18,02,49,4.60
2009,01,18,02,50,4.60
2009,01,18,02,51,4.60
2009,01,18,02,52,4.60
2009,01,18,02,53,4.60
2009,01,18,02,54,4.60
2009,01,18,02,55,4.50
2009,01,18,02,56,4.50
2009,01,18,02,57,4.50
2009,01,18,02,58,4.50
2009,01,18,02,59,4.50
2009,01,18,03,00,4.50
2009,01,18,03,01,4.60
2009,01,18,03,02,4.60
2009,01,18,03,03,4.70
2009,01,18,03,04,4.80
2009,01,18,03,05,4.80
2009,01,18,03,06,4.90
2009,01,18,03,07,5.00
2009,01,18,03,08,5.10
2009,01,18,03,09,5.10
2009,01,18,03,10,5.10
2009,01,18,03,11,5.10
2009,01,18,03,12,5.10
2009,01,18,03,13,5.10
2009,01,18,03,14,5.10
2009,01,18,03,15,5.10
2009,01,18,03,16,5.10
2009,01,18,03,17,5.10
2009,01,18,03,18,5.00
2009,01,18,03,19,4.90
2009,01,18,03,20,4.90
2009,01,18,03,21,4.90
2009,01,18,03,22,4.80
2009,01,18,03,23,4.80
2009,01,18,03,24,4.80
2009,01,18,03,25,4.90
2009,01,18,03,26,4.90
2009,01,18,03,27,4.90
2009,01,18,03,28,4.90
2009,01,18,03,29,4.90
2009,01,18,03,30,4.90
2009,01,18,03,31,4.90
2009,01,18,03,32,4.80
2009,01,18,03,33,4.80
2009,01,18,03,34,4.90
2009,01,18,03,35,4.90
2009,01,18,03,36,4.90
2009,01,18,03,37,4.90
2009,01,18,03,38,4.90
2009,01,18,03,39,4.90
2009,01,18,03,40,5.00
2009,01,18,03,41,5.10
2009,01,18,03,42,5.10
2009,01,18,03,43,5.00
2009,01,18,03,44,4.90
2009,01,18,03,45,4.90
2009,01,18,03,46,4.80
2009,01,18,03,47,4.70
2009,01,18,03,48,4.70
2009,01,18,03,49,4.60
2009,01,18,03,50,4.50
2009,01,18,03,51,4.30
2009,01,18,03,52,4.20
2009,01,18,03,53,4.10
2009,01,18,03,54,4.00
2009,01,18,03,55,3.90
2009,01,18,03,56,3.80
2009,01,18,03,57,3.80
2009,01,18,03,58,3.70
2009,01,18,03,59,3.60
2009,01,18,04,00,3.60
2009,01,18,04,01,3.50
2009,01,18,04,02,3.50
2009,01,18,04,03,3.50
2009,01,18,04,04,3.40
2009,01,18,04,05,3.40
2009,01,18,04,06,3.40
2009,01,18,04,07,3.30
2009,01,18,04,08,3.30
2009,01,18,04,09,3.30
2009,01,18,04,10,3.30
2009,01,18,04,11,3.30
2009,01,18,04,12,3.30
2009,01,18,04,13,3.40
2009,01,18,04,14,3.40
2009,01,18,04,15,3.50
2009,01,18,04,16,3.40
2009,01,18,04,17,3.40
2009,01,18,04,18,3.50
2009,01,18,04,19,3.50
2009,01,18,04,20,3.50
2009,01,18,04,21,3.50
2009,01,18,04,22,3.40
2009,01,18,04,23,3.40
2009,01,18,04,24,3.30
2009,01,18,04,25,3.30
2009,01,18,04,26,3.30
2009,01,18,04,27,3.30
2009,01,18,04,28,3.20
2009,01,18,04,29,3.20
2009,01,18,04,30,3.20
2009,01,18,04,31,3.10
2009,01,18,04,32,3.00
2009,01,18,04,33,2.80
2009,01,18,04,34,2.70
2009,01,18,04,35,2.70
2009,01,18,04,36,2.70
2009,01,18,04,37,2.70
2009,01,18,04,38,2.70
2009,01,18,04,39,2.70
2009,01,18,04,40,2.70
2009,01,18,04,41,2.70
2009,01,18,04,42,2.60
2009,01,18,04,43,2.60
2009,01,18,04,44,2.60
2009,01,18,04,45,2.60
2009,01,18,04,46,2.60
2009,01,18,04,47,2.60
2009,01,18,04,48,2.50
2009,01,18,04,49,2.50
2009,01,18,04,50,2.50
2009,01,18,04,51,2.40
2009,01,18,04,52,2.40
2009,01,18,04,53,2.40
2009,01,18,04,54,2.30
2009,01,18,04,55,2.30
2009,01,18,04,56,2.30
2009,01,18,04,57,2.30
2009,01,18,04,58,2.20
2009,01,18,04,59,2.30
2009,01,18,05,00,2.30
2009,01,18,05,01,2.30
2009,01,18,05,02,2.30
2009,01,18,05,03,2.30
2009,01,18,05,04,2.30
2009,01,18,05,05,2.40
2009,01,18,05,06,2.40
2009,01,18,05,07,2.30
2009,01,18,05,08,2.30
2009,01,18,05,09,2.30
2009,01,18,05,10,2.30
2009,01,18,05,11,2.20
2009,01,18,05,12,2.20
2009,01,18,05,13,2.20
2009,01,18,05,14,2.10
2009,01,18,05,15,2.00
2009,01,18,05,16,2.00
2009,01,18,05,17,1.90
2009,01,18,05,18,1.90
2009,01,18,05,19,1.80
2009,01,18,05,20,1.80
2009,01,18,05,21,1.80
2009,01,18,05,22,1.80
2009,01,18,05,23,1.70
2009,01,18,05,24,1.70
2009,01,18,05,25,1.70
2009,01,18,05,26,1.70
2009,01,18,05,27,1.70
2009,01,18,05,28,1.70
2009,01,18,05,29,1.60
2009,01,18,05,30,1.60
2009,01,18,05,31,1.60
2009,01,18,05,32,1.50
2009,01,18,05,33,1.50
2009,01,18,05,34,1.50
2009,01,18,05,35,1.50
2009,01,18,05,36,1.50
2009,01,18,05,37,1.40
2009,01,18,05,38,1.40
2009,01,18,05,39,1.50
2009,01,18,05,40,1.50
2009,01,18,05,41,1.50
2009,01,18,05,42,1.50
2009,01,18,05,43,1.50
2009,01,18,05,44,1.50
2009,01,18,05,45,1.50
2009,01,18,05,46,1.40
2009,01,18,05,47,1.30
2009,01,18,05,48,1.30
2009,01,18,05,49,1.30
2009,01,18,05,50,1.20
2009,01,18,05,51,1.20
2009,01,18,05,52,1.20
2009,01,18,05,53,1.20
2009,01,18,05,54,1.30
2009,01,18,05,55,1.30
2009,01,18,05,56,1.30
2009,01,18,05,57,1.30
2009,01,18,05,58,1.30
2009,01,18,05,59,1.30
2009,01,18,06,00,1.30
2009,01,18,06,01,1.30
2009,01,18,06,02,1.30
2009,01,18,06,03,1.30
2009,01,18,06,04,1.40
2009,01,18,06,05,1.50
2009,01,18,06,06,1.60
2009,01,18,06,07,1.70
2009,01,18,06,08,1.80
2009,01,18,06,09,1.80
2009,01,18,06,10,1.80
2009,01,18,06,11,1.80
2009,01,18,06,12,1.70
2009,01,18,06,13,1.60
2009,01,18,06,14,1.50
2009,01,18,06,15,1.50
2009,01,18,06,16,1.40
2009,01,18,06,17,1.40
2009,01,18,06,18,1.30
2009,01,18,06,19,1.30
2009,01,18,06,20,1.30
2009,01,18,06,21,1.30
2009,01,18,06,22,1.30
2009,01,18,06,23,1.40
2009,01,18,06,24,1.40
2009,01,18,06,25,1.50
2009,01,18,06,26,1.50
2009,01,18,06,27,1.70
2009,01,18,06,28,1.80
2009,01,18,06,29,1.80
2009,01,18,06,30,1.80
2009,01,18,06,31,1.70
2009,01,18,06,32,1.70
2009,01,18,06,33,1.70
2009,01,18,06,34,1.70
2009,01,18,06,35,1.60
2009,01,18,06,36,1.60
2009,01,18,06,37,1.60
2009,01,18,06,38,1.60
2009,01,18,06,39,1.60
2009,01,18,06,40,1.60
2009,01,18,06,41,1.60
2009,01,18,06,42,1.60
2009,01,18,06,43,1.60
2009,01,18,06,44,1.60
2009,01,18,06,45,1.60
2009,01,18,06,46,1.60
2009,01,18,06,47,1.60
2009,01,18,06,48,1.60
2009,01,18,06,49,1.60
2009,01,18,06,50,1.60
2009,01,18,06,51,1.60
2009,01,18,06,52,1.60
2009,01,18,06,53,1.70
2009,01,18,06,54,1.80
2009,01,18,06,55,1.80
2009,01,18,06,56,1.80
2009,01,18,06,57,1.80
2009,01,18,06,58,1.80
2009,01,18,06,59,1.80
2009,01,18,07,00,1.80
2009,01,18,07,01,1.80
2009,01,18,07,02,1.90
2009,01,18,07,03,1.90
2009,01,18,07,04,2.00
2009,01,18,07,05,2.00
2009,01,18,07,06,2.10
2009,01,18,07,07,2.10
2009,01,18,07,08,2.20
2009,01,18,07,09,2.20
2009,01,18,07,10,2.30
2009,01,18,07,11,2.40
2009,01,18,07,12,2.40
2009,01,18,07,13,2.50
2009,01,18,07,14,2.50
2009,01,18,07,15,2.60
2009,01,18,07,16,2.70
2009,01,18,07,17,2.70
2009,01,18,07,18,2.80
2009,01,18,07,19,2.80
2009,01,18,07,20,2.90
2009,01,18,07,21,2.90
2009,01,18,07,22,2.90
2009,01,18,07,23,2.90
2009,01,18,07,24,2.90
2009,01,18,07,25,2.90
2009,01,18,07,26,2.90
2009,01,18,07,27,2.90
2009,01,18,07,28,2.90
2009,01,18,07,29,2.90
2009,01,18,07,30,3.00
2009,01,18,07,31,3.10
2009,01,18,07,32,3.10
2009,01,18,07,33,3.20
2009,01,18,07,34,3.30
2009,01,18,07,35,3.40
2009,01,18,07,36,3.50
2009,01,18,07,37,3.50
2009,01,18,07,38,3.60
2009,01,18,07,39,3.70
2009,01,18,07,40,3.70
2009,01,18,07,41,3.80
2009,01,18,07,42,3.90
2009,01,18,07,43,4.00
2009,01,18,07,44,4.00
2009,01,18,07,45,4.00
2009,01,18,07,46,4.10
2009,01,18,07,47,4.00
2009,01,18,07,48,4.00
2009,01,18,07,49,4.00
2009,01,18,07,50,4.00
2009,01,18,07,51,4.00
2009,01,18,07,52,4.00
2009,01,18,07,53,4.00
2009,01,18,07,54,3.90
2009,01,18,07,55,3.90
2009,01,18,07,56,3.80
2009,01,18,07,57,3.80
2009,01,18,07,58,3.80
2009,01,18,07,59,3.80
2009,01,18,08,00,3.90
2009,01,18,08,01,4.00
2009,01,18,08,02,4.00
2009,01,18,08,03,4.20
2009,01,18,08,04,4.20
2009,01,18,08,05,4.20
2009,01,18,08,06,4.20
2009,01,18,08,07,4.20
2009,01,18,08,08,4.20
2009,01,18,08,09,4.30
2009,01,18,08,10,4.40
2009,01,18,08,11,4.40
2009,01,18,08,12,4.50
2009,01,18,08,13,4.40
2009,01,18,08,14,4.40
2009,01,18,08,15,4.40
2009,01,18,08,16,4.50
2009,01,18,08,17,4.50
2009,01,18,08,18,4.50
2009,01,18,08,19,4.60
2009,01,18,08,20,4.70
2009,01,18,08,21,4.80
2009,01,18,08,22,5.00
2009,01,18,08,23,5.10
2009,01,18,08,24,5.20
2009,01,18,08,25,5.30
2009,01,18,08,26,5.30
2009,01,18,08,27,5.40
2009,01,18,08,28,5.40
2009,01,18,08,29,5.50
2009,01,18,08,30,5.50
2009,01,18,08,31,5.60
2009,01,18,08,32,5.70
2009,01,18,08,33,5.70
2009,01,18,08,34,5.80
2009,01,18,08,35,5.80
2009,01,18,08,36,5.80
2009,01,18,08,37,5.90
2009,01,18,08,38,6.00
2009,01,18,08,39,6.00
2009,01,18,08,40,6.10
2009,01,18,08,41,6.10
2009,01,18,08,42,6.10
2009,01,18,08,43,6.10
2009,01,18,08,44,6.10
2009,01,18,08,45,6.10
2009,01,18,08,46,6.00
2009,01,18,08,47,6.00
2009,01,18,08,48,5.90
2009,01,18,08,49,5.90
2009,01,18,08,50,5.90
2009,01,18,08,51,5.90
2009,01,18,08,52,6.00
2009,01,18,08,53,6.10
2009,01,18,08,54,6.20
2009,01,18,08,55,6.20
2009,01,18,08,56,6.20
2009,01,18,08,57,6.20
2009,01,18,08,58,6.30
2009,01,18,08,59,6.40
2009,01,18,09,00,6.40
2009,01,18,09,01,6.40
2009,01,18,09,02,6.50
2009,01,18,09,03,6.60
2009,01,18,09,04,6.60
2009,01,18,09,05,6.60
2009,01,18,09,06,6.70
2009,01,18,09,07,6.80
2009,01,18,09,08,6.80
2009,01,18,09,09,6.90
2009,01,18,09,10,7.00
2009,01,18,09,11,7.00
2009,01,18,09,12,7.10
2009,01,18,09,13,7.20
2009,01,18,09,14,7.30
2009,01,18,09,15,7.30
2009,01,18,09,16,7.40
2009,01,18,09,17,7.40
2009,01,18,09,18,7.50
2009,01,18,09,19,7.60
2009,01,18,09,20,7.60
2009,01,18,09,21,7.70
2009,01,18,09,22,7.70
2009,01,18,09,23,7.80
2009,01,18,09,24,7.80
2009,01,18,09,25,7.90
2009,01,18,09,26,8.00
2009,01,18,09,27,8.00
2009,01,18,09,28,8.20
2009,01,18,09,29,8.30
2009,01,18,09,30,8.40
2009,01,18,09,31,8.50
2009,01,18,09,32,8.50
2009,01,18,09,33,8.70
2009,01,18,09,34,8.70
2009,01,18,09,35,8.80
2009,01,18,09,36,8.90
2009,01,18,09,37,8.90
2009,01,18,09,38,9.00
2009,01,18,09,39,9.00
2009,01,18,09,40,9.10
2009,01,18,09,41,9.10
2009,01,18,09,42,9.20
2009,01,18,09,43,9.20
2009,01,18,09,44,9.20
2009,01,18,09,45,9.30
2009,01,18,09,46,9.30
2009,01,18,09,47,9.40
2009,01,18,09,48,9.40
2009,01,18,09,49,9.50
2009,01,18,09,50,9.60
2009,01,18,09,51,9.60
2009,01,18,09,52,9.70
2009,01,18,09,53,9.70
2009,01,18,09,54,9.70
2009,01,18,09,55,9.70
2009,01,18,09,56,9.70
2009,01,18,09,57,9.80
2009,01,18,09,58,9.80
2009,01,18,09,59,9.80
2009,01,18,10,00,9.90
2009,01,18,10,01,9.90
2009,01,18,10,02,9.90
2009,01,18,10,03,9.90
2009,01,18,10,04,9.90
2009,01,18,10,05,10.00
2009,01,18,10,06,10.10
2009,01,18,10,07,10.10
2009,01,18,10,08,10.10
2009,01,18,10,09,10.10
2009,01,18,10,10,10.10
2009,01,18,10,11,10.20
2009,01,18,10,12,10.20
2009,01,18,10,13,10.20
2009,01,18,10,14,10.20
2009,01,18,10,15,10.30
2009,01,18,10,16,10.30
2009,01,18,10,17,10.30
2009,01,18,10,18,10.40
2009,01,18,10,19,10.40
2009,01,18,10,20,10.40
2009,01,18,10,21,10.40
2009,01,18,10,22,10.40
2009,01,18,10,23,10.40
2009,01,18,10,24,10.40
2009,01,18,10,25,10.40
2009,01,18,10,26,10.40
2009,01,18,10,27,10.50
2009,01,18,10,28,10.60
2009,01,18,10,29,10.60
2009,01,18,10,30,10.60
2009,01,18,10,31,10.60
2009,01,18,10,32,10.60
2009,01,18,10,33,10.60
2009,01,18,10,34,10.60
2009,01,18,10,35,10.60
2009,01,18,10,36,10.70
2009,01,18,10,37,10.70
2009,01,18,10,38,10.70
2009,01,18,10,39,10.70
2009,01,18,10,40,10.70
2009,01,18,10,41,10.70
2009,01,18,10,42,10.70
2009,01,18,10,43,10.80
2009,01,18,10,44,10.80
2009,01,18,10,45,10.80
2009,01,18,10,46,10.90
2009,01,18,10,47,10.90
2009,01,18,10,48,10.90
2009,01,18,10,49,10.90
2009,01,18,10,50,10.90
2009,01,18,10,51,10.90
2009,01,18,10,52,10.90
2009,01,18,10,53,10.90
2009,01,18,10,54,10.90
2009,01,18,10,55,10.90
2009,01,18,10,56,10.90
2009,01,18,10,57,10.90
2009,01,18,10,58,10.90
2009,01,18,10,59,10.90
2009,01,18,11,00,10.90
2009,01,18,11,01,10.90
2009,01,18,11,02,10.90
2009,01,18,11,03,11.10
2009,01,18,11,04,11.10
2009,01,18,11,05,11.10
2009,01,18,11,06,11.10
2009,01,18,11,07,11.20
2009,01,18,11,08,11.20
2009,01,18,11,09,11.30
2009,01,18,11,10,11.40
2009,01,18,11,11,11.40
2009,01,18,11,12,11.50
2009,01,18,11,13,11.60
2009,01,18,11,14,11.60
2009,01,18,11,15,11.60
2009,01,18,11,16,11.70
2009,01,18,11,17,11.70
2009,01,18,11,18,11.70
2009,01,18,11,19,11.70
2009,01,18,11,20,11.60
2009,01,18,11,21,11.60
2009,01,18,11,22,11.60
2009,01,18,11,23,11.60
2009,01,18,11,24,11.60
2009,01,18,11,25,11.60
2009,01,18,11,26,11.40
2009,01,18,11,27,11.40
2009,01,18,11,28,11.40
2009,01,18,11,29,11.40
2009,01,18,11,30,11.40
2009,01,18,11,31,11.30
2009,01,18,11,32,11.30
2009,01,18,11,33,11.30
2009,01,18,11,34,11.30
2009,01,18,11,35,11.30
2009,01,18,11,36,11.30
2009,01,18,11,37,11.30
2009,01,18,11,38,11.40
2009,01,18,11,39,11.40
2009,01,18,11,40,11.40
2009,01,18,11,41,11.40
2009,01,18,11,42,11.50
2009,01,18,11,43,11.60
2009,01,18,11,44,11.60
2009,01,18,11,45,11.60
2009,01,18,11,46,11.60
2009,01,18,11,47,11.60
2009,01,18,11,48,11.60
2009,01,18,11,49,11.40
2009,01,18,11,50,11.50
2009,01,18,11,51,11.60
2009,01,18,11,52,11.60
2009,01,18,11,53,11.60
2009,01,18,11,54,11.60
2009,01,18,11,55,11.60
2009,01,18,11,56,11.40
2009,01,18,11,57,11.40
2009,01,18,11,58,11.40
2009,01,18,11,59,11.40
2009,01,18,12,00,11.40
2009,01,18,12,01,11.40
2009,01,18,12,02,11.40
2009,01,18,12,03,11.50
2009,01,18,12,04,11.60
2009,01,18,12,05,11.60
2009,01,18,12,06,11.60
2009,01,18,12,07,11.60
2009,01,18,12,08,11.70
2009,01,18,12,09,11.70
2009,01,18,12,10,11.80
2009,01,18,12,11,11.80
2009,01,18,12,12,11.80
2009,01,18,12,13,11.80
2009,01,18,12,14,11.90
2009,01,18,12,15,11.90
2009,01,18,12,16,11.90
2009,01,18,12,17,11.90
2009,01,18,12,18,11.90
2009,01,18,12,19,11.90
2009,01,18,12,20,11.90
2009,01,18,12,21,11.90
2009,01,18,12,22,11.90
2009,01,18,12,23,11.90
2009,01,18,12,24,11.90
2009,01,18,12,25,11.80
2009,01,18,12,26,11.80
2009,01,18,12,27,11.80
2009,01,18,12,28,11.80
2009,01,18,12,29,11.80
2009,01,18,12,30,11.80
2009,01,18,12,31,11.70
2009,01,18,12,32,11.80
2009,01,18,12,33,11.80
2009,01,18,12,34,11.70
2009,01,18,12,35,11.70
2009,01,18,12,36,11.70
2009,01,18,12,37,11.70
2009,01,18,12,38,11.70
2009,01,18,12,39,11.70
2009,01,18,12,40,11.70
2009,01,18,12,41,11.70
2009,01,18,12,42,11.70
2009,01,18,12,43,11.70
2009,01,18,12,44,11.70
2009,01,18,12,45,11.70
2009,01,18,12,46,11.70
2009,01,18,12,47,11.70
2009,01,18,12,48,11.70
2009,01,18,12,49,11.80
2009,01,18,12,50,11.80
2009,01,18,12,51,11.80
2009,01,18,12,52,11.80
2009,01,18,12,53,11.90
2009,01,18,12,54,12.00
2009,01,18,12,55,12.00
2009,01,18,12,56,12.10
2009,01,18,12,57,12.10
2009,01,18,12,58,12.20
2009,01,18,12,59,12.20
2009,01,18,13,00,12.30
2009,01,18,13,01,12.30
2009,01,18,13,02,12.30
2009,01,18,13,03,12.30
2009,01,18,13,04,12.30
2009,01,18,13,05,12.30
2009,01,18,13,06,12.30
2009,01,18,13,07,12.30
2009,01,18,13,08,12.30
2009,01,18,13,09,12.30
2009,01,18,13,10,12.30
2009,01,18,13,11,12.40
2009,01,18,13,12,12.40
2009,01,18,13,13,12.40
2009,01,18,13,14,12.40
2009,01,18,13,15,12.40
2009,01,18,13,16,12.30
2009,01,18,13,17,12.30
2009,01,18,13,18,12.30
2009,01,18,13,19,12.30
2009,01,18,13,20,12.30
2009,01,18,13,21,12.30
2009,01,18,13,22,12.30
2009,01,18,13,23,12.30
2009,01,18,13,24,12.30
2009,01,18,13,25,12.30
2009,01,18,13,26,12.30
2009,01,18,13,27,12.30
2009,01,18,13,28,12.30
2009,01,18,13,29,12.30
2009,01,18,13,30,12.30
2009,01,18,13,31,12.40
2009,01,18,13,32,12.40
2009,01,18,13,33,12.50
2009,01,18,13,34,12.50
2009,01,18,13,35,12.50
2009,01,18,13,36,12.50
2009,01,18,13,37,12.50
2009,01,18,13,38,12.50
2009,01,18,13,39,12.50
2009,01,18,13,40,12.50
2009,01,18,13,41,12.50
2009,01,18,13,42,12.50
2009,01,18,13,43,12.50
2009,01,18,13,44,12.50
2009,01,18,13,45,12.40
2009,01,18,13,46,12.40
2009,01,18,13,47,12.40
2009,01,18,13,48,12.40
2009,01,18,13,49,12.30
2009,01,18,13,50,12.30
2009,01,18,13,51,12.30
2009,01,18,13,52,12.30
2009,01,18,13,53,12.30
2009,01,18,13,54,12.20
2009,01,18,13,55,12.20
2009,01,18,13,56,12.20
2009,01,18,13,57,12.20
2009,01,18,13,58,12.20
2009,01,18,13,59,12.20
2009,01,18,14,00,12.20
2009,01,18,14,01,12.20
2009,01,18,14,02,12.20
2009,01,18,14,03,12.30
2009,01,18,14,04,12.30
2009,01,18,14,05,12.30
2009,01,18,14,06,12.30
2009,01,18,14,07,12.40
2009,01,18,14,08,12.40
2009,01,18,14,09,12.40
2009,01,18,14,10,12.40
2009,01,18,14,11,12.50
2009,01,18,14,12,12.50
2009,01,18,14,13,12.50
2009,01,18,14,14,12.50
2009,01,18,14,15,12.50
2009,01,18,14,16,12.60
2009,01,18,14,17,12.60
2009,01,18,14,18,12.60
2009,01,18,14,19,12.70
2009,01,18,14,20,12.70
2009,01,18,14,21,12.80
2009,01,18,14,22,12.80
2009,01,18,14,23,12.80
2009,01,18,14,24,12.80
2009,01,18,14,25,12.80
2009,01,18,14,26,12.90
2009,01,18,14,27,12.90
2009,01,18,14,28,13.00
2009,01,18,14,29,13.00
2009,01,18,14,30,13.00
2009,01,18,14,31,13.10
2009,01,18,14,32,13.10
2009,01,18,14,33,13.10
2009,01,18,14,34,13.10
2009,01,18,14,35,13.10
2009,01,18,14,36,13.10
2009,01,18,14,37,13.10
2009,01,18,14,38,13.10
2009,01,18,14,39,13.00
2009,01,18,14,40,13.00
2009,01,18,14,41,13.00
2009,01,18,14,42,13.00
2009,01,18,14,43,13.00
2009,01,18,14,44,13.00
2009,01,18,14,45,13.00
2009,01,18,14,46,13.00
2009,01,18,14,47,13.00
2009,01,18,14,48,13.00
2009,01,18,14,49,13.00
2009,01,18,14,50,12.90
2009,01,18,14,51,12.90
2009,01,18,14,52,12.90
2009,01,18,14,53,12.90
2009,01,18,14,54,12.90
2009,01,18,14,55,12.90
2009,01,18,14,56,12.90
2009,01,18,14,57,12.80
2009,01,18,14,58,12.80
2009,01,18,14,59,12.80
2009,01,18,15,00,12.80
2009,01,18,15,01,12.80
2009,01,18,15,02,12.90
2009,01,18,15,03,12.90
2009,01,18,15,04,12.90
2009,01,18,15,05,12.90
2009,01,18,15,06,12.90
2009,01,18,15,07,12.90
2009,01,18,15,08,12.90
2009,01,18,15,09,12.80
2009,01,18,15,10,12.80
2009,01,18,15,11,12.80
2009,01,18,15,12,12.80
2009,01,18,15,13,12.80
2009,01,18,15,14,12.80
2009,01,18,15,15,12.80
2009,01,18,15,16,12.80
2009,01,18,15,17,12.80
2009,01,18,15,18,12.80
2009,01,18,15,19,12.80
2009,01,18,15,20,12.80
2009,01,18,15,21,12.70
2009,01,18,15,22,12.70
2009,01,18,15,23,12.70
2009,01,18,15,24,12.70
2009,01,18,15,25,12.70
2009,01,18,15,26,12.70
2009,01,18,15,27,12.60
2009,01,18,15,28,12.60
2009,01,18,15,29,12.60
2009,01,18,15,30,12.60
2009,01,18,15,31,12.50
2009,01,18,15,32,12.50
2009,01,18,15,33,12.50
2009,01,18,15,34,12.50
2009,01,18,15,35,12.50
2009,01,18,15,36,12.50
2009,01,18,15,37,12.50
2009,01,18,15,38,12.50
2009,01,18,15,39,12.50
2009,01,18,15,40,12.40
2009,01,18,15,41,12.40
2009,01,18,15,42,12.40
2009,01,18,15,43,12.30
2009,01,18,15,44,12.30
2009,01,18,15,45,12.30
2009,01,18,15,46,12.30
2009,01,18,15,47,12.30
2009,01,18,15,48,12.20
2009,01,18,15,49,12.20
2009,01,18,15,50,12.20
2009,01,18,15,51,12.10
2009,01,18,15,52,12.10
2009,01,18,15,53,12.10
2009,01,18,15,54,12.00
2009,01,18,15,55,12.00
2009,01,18,15,56,11.90
2009,01,18,15,57,11.90
2009,01,18,15,58,11.90
2009,01,18,15,59,11.80
2009,01,18,16,00,11.80
2009,01,18,16,01,11.80
2009,01,18,16,02,11.80
2009,01,18,16,03,11.80
2009,01,18,16,04,11.80
2009,01,18,16,05,11.80
2009,01,18,16,06,11.70
2009,01,18,16,07,11.70
2009,01,18,16,08,11.70
2009,01,18,16,09,11.70
2009,01,18,16,10,11.70
2009,01,18,16,11,11.70
2009,01,18,16,12,11.70
2009,01,18,16,13,11.70
2009,01,18,16,14,11.60
2009,01,18,16,15,11.60
2009,01,18,16,16,11.60
2009,01,18,16,17,11.60
2009,01,18,16,18,11.60
2009,01,18,16,19,11.60
2009,01,18,16,20,11.60
2009,01,18,16,21,11.60
2009,01,18,16,22,11.60
2009,01,18,16,23,11.60
2009,01,18,16,24,11.60
2009,01,18,16,25,11.60
2009,01,18,16,26,11.60
2009,01,18,16,27,11.50
2009,01,18,16,28,11.40
2009,01,18,16,29,11.40
2009,01,18,16,30,11.40
2009,01,18,16,31,11.40
2009,01,18,16,32,11.40
2009,01,18,16,33,11.30
2009,01,18,16,34,11.30
2009,01,18,16,35,11.30
2009,01,18,16,36,11.20
2009,01,18,16,37,11.20
2009,01,18,16,38,11.20
2009,01,18,16,39,11.20
2009,01,18,16,40,11.20
2009,01,18,16,41,11.10
2009,01,18,16,42,11.10
2009,01,18,16,43,11.10
2009,01,18,16,44,11.10
2009,01,18,16,45,11.00
2009,01,18,16,46,10.90
2009,01,18,16,47,10.90
2009,01,18,16,48,10.90
2009,01,18,16,49,10.80
2009,01,18,16,50,10.70
2009,01,18,16,51,10.60
2009,01,18,16,52,10.60
2009,01,18,16,53,10.40
2009,01,18,16,54,10.40
2009,01,18,16,55,10.30
2009,01,18,16,56,10.20
2009,01,18,16,57,10.20
2009,01,18,16,58,10.10
2009,01,18,16,59,10.10
2009,01,18,17,00,10.10
2009,01,18,17,01,10.00
2009,01,18,17,02,9.90
2009,01,18,17,03,9.90
2009,01,18,17,04,9.90
2009,01,18,17,05,9.80
2009,01,18,17,06,9.70
2009,01,18,17,07,9.70
2009,01,18,17,08,9.60
2009,01,18,17,09,9.60
2009,01,18,17,10,9.50
2009,01,18,17,11,9.50
2009,01,18,17,12,9.40
2009,01,18,17,13,9.40
2009,01,18,17,14,9.30
2009,01,18,17,15,9.30
2009,01,18,17,16,9.20
2009,01,18,17,17,9.10
2009,01,18,17,18,9.00
2009,01,18,17,19,8.90
2009,01,18,17,20,8.80
2009,01,18,17,21,8.70
2009,01,18,17,22,8.60
2009,01,18,17,23,8.40
2009,01,18,17,24,8.30
2009,01,18,17,25,8.20
2009,01,18,17,26,8.10
2009,01,18,17,27,8.00
2009,01,18,17,28,7.90
2009,01,18,17,29,7.80
2009,01,18,17,30,7.70
2009,01,18,17,31,7.60
2009,01,18,17,32,7.60
2009,01,18,17,33,7.50
2009,01,18,17,34,7.50
2009,01,18,17,35,7.50
2009,01,18,17,36,7.60
2009,01,18,17,37,7.60
2009,01,18,17,38,7.70
2009,01,18,17,39,7.70
2009,01,18,17,40,7.70
2009,01,18,17,41,7.80
2009,01,18,17,42,7.90
2009,01,18,17,43,8.00
2009,01,18,17,44,8.10
2009,01,18,17,45,8.20
2009,01,18,17,46,8.20
2009,01,18,17,47,8.20